Change the Weather History Date:

Saturday, March 10, 2012

  Actual Average Record
Temperature  
Mean Temperature 52 °F -  
Max Temperature 64 °F 63 °F 87 °F (1974)
Min Temperature 41 °F 38 °F 16 °F (1932)
Degree Days  
Heating Degree Days 12    
Growing Degree Days 2 (Base 50)    
Moisture  
Dew Point 25 °F    
Average Humidity 37    
Maximum Humidity 76    
Minimum Humidity 17    
Precipitation  
Precipitation 0.00 in - - ()
Sea Level Pressure  
Sea Level Pressure 30.41 in    
Wind  
Wind Speed 4 mph (ENE)    
Max Wind Speed 10 mph    
Max Gust Speed 16 mph    
Visibility 10 miles    
Events      
Averages and records for this station are not official NWS values.
T = Trace of Precipitation, MM = Missing Value Source: NWS Daily Summary

Daily Weather History Graph

Daily Weather History Graph

Search for Another Location

Airport or City:

Trip Planner

Search our weather history database for the weather conditions in past years. The results will help you decide how hot, cold, wet, or windy it might be!

Date:

Astronomy

Mar. 10, 2012 Rise Set
Actual Time 6:48 AM EST 6:35 PM EST
Civil Twilight 6:23 AM EST 7:00 PM EST
Nautical Twilight 5:53 AM EST 7:29 PM EST
Astronomical Twilight 5:24 AM EST 7:59 PM EST
Moon 9:35 PM EST (3/10) 7:51 AM EST (3/10)
Length of Visible Light 12h 37m
Length of Day
11h 47m
Waning Gibbous, 93% of the Moon is Illuminated
Mar 10
Waning Gibbous
Mar 14
Last Quarter
Mar 22
New
Mar 30
First Quarter
Apr 6
Full

Hourly Weather History & Observations

Time (EST) Temp. Windchill Dew Point Humidity Pressure Visibility Wind Dir Wind Speed Gust Speed Precip Events Conditions
12:54 AM 48.9 °F - 25.0 °F 39% 30.32 in 10.0 mi North 4.6 mph - N/A   Clear
1:54 AM 46.9 °F - 27.0 °F 46% 30.32 in 10.0 mi Calm Calm - N/A   Clear
2:54 AM 46.9 °F - 25.0 °F 42% 30.31 in 10.0 mi NNW 4.6 mph - N/A   Clear
3:54 AM 45.0 °F - 30.9 °F 58% 30.32 in 10.0 mi Calm Calm - N/A   Clear
4:54 AM 43.0 °F - 32.0 °F 65% 30.35 in 10.0 mi Calm Calm - N/A   Clear
5:54 AM 43.0 °F - 32.0 °F 65% 30.38 in 10.0 mi Calm Calm - N/A   Clear
6:54 AM 41.0 °F 38.0 °F 34.0 °F 76% 30.41 in 10.0 mi North 4.6 mph - N/A   Clear
7:54 AM 45.0 °F - 34.0 °F 65% 30.43 in 10.0 mi Calm Calm - N/A   Clear
8:54 AM 48.9 °F - 28.9 °F 46% 30.44 in 10.0 mi East 3.5 mph - N/A   Clear
9:54 AM 53.1 °F - 28.9 °F 40% 30.46 in 10.0 mi Variable 4.6 mph - N/A   Clear
10:54 AM 57.0 °F - 21.0 °F 25% 30.47 in 10.0 mi ENE 10.4 mph 16.1 mph N/A   Clear
11:54 AM 59.0 °F - 21.0 °F 23% 30.46 in 10.0 mi NE 9.2 mph - N/A   Clear
12:54 PM 61.0 °F - 21.9 °F 22% 30.44 in 10.0 mi ESE 8.1 mph - N/A   Clear
1:54 PM 63.0 °F - 19.0 °F 18% 30.42 in 10.0 mi Variable 3.5 mph - N/A   Clear
2:54 PM 64.0 °F - 19.9 °F 18% 30.41 in 10.0 mi East 6.9 mph - N/A   Clear
3:54 PM 64.0 °F - 19.0 °F 18% 30.39 in 10.0 mi ENE 8.1 mph - N/A   Clear
4:54 PM 64.0 °F - 18.0 °F 17% 30.39 in 10.0 mi East 8.1 mph - N/A   Clear
5:54 PM 62.1 °F - 19.0 °F 19% 30.40 in 10.0 mi East 3.5 mph - N/A   Clear
6:54 PM 60.1 °F - 19.9 °F 21% 30.41 in 10.0 mi East 4.6 mph - N/A   Clear
7:54 PM 57.0 °F - 21.0 °F 25% 30.43 in 10.0 mi Calm Calm - N/A   Clear
8:54 PM 54.0 °F - 27.0 °F 35% 30.45 in 10.0 mi ENE 4.6 mph - N/A   Clear
9:54 PM 52.0 °F - 25.0 °F 35% 30.47 in 10.0 mi ENE 3.5 mph - N/A   Clear
10:54 PM 51.1 °F - 25.0 °F 36% 30.48 in 10.0 mi Calm Calm - N/A   Clear
11:54 PM 48.0 °F - 26.1 °F 42% 30.49 in 10.0 mi ENE 4.6 mph - N/A   Clear